TimeCDT,TemperatureF,Dew PointF,Humidity,Sea Level PressureIn,VisibilityMPH,Wind Direction,Wind SpeedMPH,Gust SpeedMPH,PrecipitationIn,Events,Conditions,WindDirDegrees,DateUTC
12:15 AM,35.6,26.6,70,29.96,10.0,East,3.5,-,N/A,,Overcast,80,2013-04-14 05:15:00
12:35 AM,35.6,28.4,75,29.96,10.0,ENE,3.5,-,N/A,,Overcast,70,2013-04-14 05:35:00
12:55 AM,35.6,26.6,70,29.96,10.0,East,4.6,-,N/A,,Overcast,80,2013-04-14 05:55:00
1:15 AM,35.6,28.4,75,29.95,10.0,ENE,5.8,-,N/A,,Overcast,70,2013-04-14 06:15:00
1:35 AM,35.6,26.6,70,29.94,10.0,ENE,9.2,-,N/A,,Overcast,70,2013-04-14 06:35:00
1:55 AM,35.6,26.6,70,29.94,10.0,East,6.9,-,N/A,,Overcast,80,2013-04-14 06:55:00
2:15 AM,35.6,26.6,70,29.94,10.0,East,8.1,-,N/A,,Overcast,90,2013-04-14 07:15:00
2:35 AM,35.6,26.6,70,29.94,10.0,East,6.9,-,N/A,,Overcast,100,2013-04-14 07:35:00
2:55 AM,35.6,26.6,70,29.94,10.0,East,9.2,-,N/A,,Overcast,100,2013-04-14 07:55:00
3:15 AM,33.8,28.4,81,29.94,7.0,ESE,11.5,-,N/A,Snow,Light Snow,110,2013-04-14 08:15:00
3:35 AM,33.8,30.2,87,29.94,1.8,East,10.4,-,N/A,Snow,Light Snow,100,2013-04-14 08:35:00
3:55 AM,32.0,30.2,93,29.94,2.0,East,9.2,-,N/A,Snow,Light Snow,100,2013-04-14 08:55:00
4:15 AM,32.0,30.2,93,29.94,7.0,East,10.4,-,0.01,Snow,Light Snow,90,2013-04-14 09:15:00
4:35 AM,32.0,30.2,93,29.92,7.0,East,13.8,-,0.01,,Overcast,80,2013-04-14 09:35:00
4:55 AM,32.0,32.0,100,29.92,5.0,East,11.5,-,0.03,,Overcast,90,2013-04-14 09:55:00
5:15 AM,32.0,32.0,100,29.92,7.0,East,10.4,-,N/A,,Overcast,90,2013-04-14 10:15:00
5:35 AM,32.0,32.0,100,29.92,5.0,East,10.4,-,N/A,,Overcast,90,2013-04-14 10:35:00
5:55 AM,32.0,32.0,100,29.90,7.0,East,11.5,-,0.01,,Overcast,80,2013-04-14 10:55:00
6:15 AM,32.0,32.0,100,29.89,7.0,ENE,10.4,-,N/A,,Overcast,70,2013-04-14 11:15:00
6:35 AM,33.8,32.0,93,29.89,4.0,East,11.5,-,0.01,,Overcast,80,2013-04-14 11:35:00
6:55 AM,33.8,32.0,93,29.89,4.0,East,10.4,-,0.02,,Overcast,90,2013-04-14 11:55:00
7:15 AM,33.8,32.0,93,29.88,5.0,East,10.4,-,N/A,,Overcast,90,2013-04-14 12:15:00
7:35 AM,33.8,32.0,93,29.87,7.0,East,6.9,-,N/A,,Overcast,100,2013-04-14 12:35:00
7:55 AM,33.8,32.0,93,29.85,10.0,East,10.4,-,N/A,,Overcast,90,2013-04-14 12:55:00
8:15 AM,33.8,32.0,93,29.85,10.0,East,10.4,-,N/A,,Overcast,100,2013-04-14 13:15:00
8:35 AM,33.8,32.0,93,29.84,10.0,East,13.8,-,N/A,,Overcast,100,2013-04-14 13:35:00
8:55 AM,33.8,32.0,93,29.84,10.0,East,11.5,-,N/A,,Overcast,90,2013-04-14 13:55:00
9:15 AM,33.8,32.0,93,29.84,10.0,East,11.5,-,N/A,,Overcast,100,2013-04-14 14:15:00
9:35 AM,33.8,32.0,93,29.85,10.0,East,10.4,16.1,N/A,,Overcast,100,2013-04-14 14:35:00
9:55 AM,35.6,32.0,87,29.84,10.0,East,10.4,16.1,N/A,,Overcast,100,2013-04-14 14:55:00
10:15 AM,35.6,32.0,87,29.84,10.0,East,18.4,25.3,N/A,,Overcast,100,2013-04-14 15:15:00
10:35 AM,35.6,33.8,93,29.82,10.0,East,16.1,24.2,N/A,Snow,Light Snow,90,2013-04-14 15:35:00
10:55 AM,37.4,33.8,87,29.81,10.0,East,13.8,23.0,N/A,Rain,Light Rain,100,2013-04-14 15:55:00
11:15 AM,39.2,35.6,87,29.78,10.0,ESE,16.1,24.2,N/A,,Overcast,110,2013-04-14 16:15:00
11:35 AM,39.2,35.6,87,29.78,10.0,East,13.8,26.5,N/A,,Overcast,100,2013-04-14 16:35:00
11:55 AM,41.0,35.6,81,29.76,10.0,ESE,17.3,26.5,N/A,,Mostly Cloudy,110,2013-04-14 16:55:00
12:15 PM,42.8,35.6,76,29.75,10.0,East,18.4,29.9,N/A,,Mostly Cloudy,100,2013-04-14 17:15:00
12:35 PM,44.6,37.4,76,29.75,10.0,East,16.1,21.9,N/A,,Mostly Cloudy,100,2013-04-14 17:35:00
12:55 PM,46.4,37.4,71,29.73,10.0,East,18.4,26.5,N/A,,Scattered Clouds,100,2013-04-14 17:55:00
1:15 PM,48.2,37.4,66,29.75,10.0,East,17.3,25.3,N/A,,Scattered Clouds,100,2013-04-14 18:15:00
1:35 PM,50.0,37.4,62,29.73,10.0,East,17.3,26.5,N/A,,Scattered Clouds,100,2013-04-14 18:35:00
1:55 PM,50.0,37.4,62,29.69,10.0,East,20.7,26.5,N/A,,Scattered Clouds,100,2013-04-14 18:55:00
2:15 PM,50.0,37.4,62,29.68,10.0,East,18.4,28.8,N/A,,Mostly Cloudy,90,2013-04-14 19:15:00
2:35 PM,53.6,39.2,58,29.66,10.0,ESE,23.0,29.9,N/A,,Scattered Clouds,110,2013-04-14 19:35:00
2:55 PM,53.6,39.2,58,29.66,10.0,ESE,19.6,26.5,N/A,,Clear,110,2013-04-14 19:55:00
3:15 PM,55.4,41.0,58,29.64,10.0,ESE,20.7,28.8,N/A,,Clear,110,2013-04-14 20:15:00
3:35 PM,55.4,41.0,58,29.62,10.0,East,13.8,28.8,N/A,,Clear,100,2013-04-14 20:35:00
3:55 PM,59.0,41.0,51,29.62,10.0,East,19.6,26.5,N/A,,Clear,100,2013-04-14 20:55:00
4:15 PM,59.0,42.8,55,29.61,10.0,East,18.4,24.2,N/A,,Clear,90,2013-04-14 21:15:00
4:35 PM,59.0,41.0,51,29.60,10.0,East,21.9,29.9,N/A,,Clear,90,2013-04-14 21:35:00
4:55 PM,55.4,41.0,58,29.60,10.0,East,19.6,26.5,N/A,,Clear,90,2013-04-14 21:55:00
5:15 PM,55.4,41.0,58,29.57,10.0,East,24.2,31.1,N/A,,Clear,100,2013-04-14 22:15:00
5:35 PM,55.4,41.0,58,29.57,10.0,East,17.3,25.3,N/A,,Clear,90,2013-04-14 22:35:00
5:55 PM,55.4,41.0,58,29.57,10.0,East,13.8,23.0,N/A,,Clear,90,2013-04-14 22:55:00
6:15 PM,53.6,41.0,62,29.58,10.0,East,17.3,24.2,N/A,,Clear,100,2013-04-14 23:15:00
6:35 PM,53.6,41.0,62,29.57,10.0,East,17.3,27.6,N/A,,Scattered Clouds,100,2013-04-14 23:35:00
6:55 PM,51.8,39.2,62,29.57,10.0,East,16.1,24.2,N/A,,Scattered Clouds,90,2013-04-14 23:55:00
7:15 PM,51.8,39.2,62,29.56,10.0,East,18.4,24.2,N/A,,Scattered Clouds,90,2013-04-15 00:15:00
7:55 PM,50.0,39.2,66,29.55,10.0,East,16.1,24.2,N/A,,Scattered Clouds,100,2013-04-15 00:55:00
8:15 PM,50.0,39.2,66,29.55,10.0,East,11.5,26.5,N/A,,Scattered Clouds,100,2013-04-15 01:15:00
8:35 PM,48.2,39.2,71,29.54,10.0,East,16.1,24.2,N/A,,Clear,100,2013-04-15 01:35:00
8:55 PM,48.2,39.2,71,29.55,10.0,East,15.0,21.9,N/A,,Scattered Clouds,100,2013-04-15 01:55:00
9:15 PM,48.2,41.0,76,29.54,10.0,East,15.0,18.4,N/A,Rain,Light Rain,100,2013-04-15 02:15:00
9:35 PM,50.0,41.0,71,29.54,10.0,ESE,10.4,18.4,N/A,,Mostly Cloudy,110,2013-04-15 02:35:00
9:55 PM,51.8,42.8,71,29.54,10.0,ESE,11.5,17.3,N/A,,Mostly Cloudy,110,2013-04-15 02:55:00
10:15 PM,51.8,42.8,71,29.59,10.0,WNW,17.3,21.9,N/A,Rain,Light Rain,290,2013-04-15 03:15:00
10:35 PM,50.0,42.8,76,29.59,10.0,Calm,Calm,-,N/A,Rain,Light Rain,0,2013-04-15 03:35:00
10:55 PM,50.0,42.8,76,29.58,10.0,Calm,Calm,-,N/A,Rain,Light Rain,0,2013-04-15 03:55:00
11:15 PM,50.0,42.8,76,29.59,7.0,Calm,Calm,-,N/A,Rain,Rain,0,2013-04-15 04:15:00
11:35 PM,50.0,44.6,82,29.60,5.0,WNW,4.6,-,0.05,Rain,Rain,290,2013-04-15 04:35:00
11:55 PM,48.2,44.6,87,29.60,5.0,Calm,Calm,-,0.10,Rain,Heavy Rain,0,2013-04-15 04:55:00